Year,Month,Day,Hour,Minute,Value (Times are PST for temperature in C)
2018,07,13,00,00,17.60
2018,07,13,00,01,17.60
2018,07,13,00,02,17.60
2018,07,13,00,03,17.60
2018,07,13,00,04,17.60
2018,07,13,00,05,17.50
2018,07,13,00,06,17.50
2018,07,13,00,07,17.50
2018,07,13,00,08,17.50
2018,07,13,00,09,17.50
2018,07,13,00,10,17.50
2018,07,13,00,11,17.50
2018,07,13,00,12,17.40
2018,07,13,00,13,17.40
2018,07,13,00,14,17.40
2018,07,13,00,15,17.40
2018,07,13,00,16,17.40
2018,07,13,00,17,17.40
2018,07,13,00,18,17.40
2018,07,13,00,19,17.40
2018,07,13,00,20,17.30
2018,07,13,00,21,17.30
2018,07,13,00,22,17.30
2018,07,13,00,23,17.30
2018,07,13,00,24,17.30
2018,07,13,00,25,17.20
2018,07,13,00,26,17.20
2018,07,13,00,27,17.20
2018,07,13,00,28,17.20
2018,07,13,00,29,17.20
2018,07,13,00,30,17.10
2018,07,13,00,31,17.10
2018,07,13,00,32,17.10
2018,07,13,00,33,17.10
2018,07,13,00,34,17.00
2018,07,13,00,35,17.00
2018,07,13,00,36,16.90
2018,07,13,00,37,16.90
2018,07,13,00,38,16.90
2018,07,13,00,39,16.90
2018,07,13,00,40,16.80
2018,07,13,00,41,16.80
2018,07,13,00,42,16.80
2018,07,13,00,43,16.80
2018,07,13,00,44,16.80
2018,07,13,00,45,16.80
2018,07,13,00,46,16.70
2018,07,13,00,47,16.70
2018,07,13,00,48,16.70
2018,07,13,00,49,16.70
2018,07,13,00,50,16.70
2018,07,13,00,51,16.70
2018,07,13,00,52,16.70
2018,07,13,00,53,16.70
2018,07,13,00,54,16.70
2018,07,13,00,55,16.70
2018,07,13,00,56,16.70
2018,07,13,00,57,16.70
2018,07,13,00,58,16.70
2018,07,13,00,59,16.70
2018,07,13,01,00,16.70
2018,07,13,01,01,16.70
2018,07,13,01,02,16.70
2018,07,13,01,03,16.70
2018,07,13,01,04,16.70
2018,07,13,01,05,16.70
2018,07,13,01,06,16.70
2018,07,13,01,07,16.70
2018,07,13,01,08,16.70
2018,07,13,01,09,16.60
2018,07,13,01,10,16.60
2018,07,13,01,11,16.60
2018,07,13,01,12,16.60
2018,07,13,01,13,16.60
2018,07,13,01,14,16.50
2018,07,13,01,15,16.50
2018,07,13,01,16,16.50
2018,07,13,01,17,16.40
2018,07,13,01,18,16.40
2018,07,13,01,19,16.40
2018,07,13,01,20,16.40
2018,07,13,01,21,16.40
2018,07,13,01,22,16.40
2018,07,13,01,23,16.40
2018,07,13,01,24,16.40
2018,07,13,01,25,16.30
2018,07,13,01,26,16.30
2018,07,13,01,27,16.30
2018,07,13,01,28,16.30
2018,07,13,01,29,16.30
2018,07,13,01,30,16.30
2018,07,13,01,31,16.30
2018,07,13,01,32,16.30
2018,07,13,01,33,16.30
2018,07,13,01,34,16.30
2018,07,13,01,35,16.30
2018,07,13,01,36,16.30
2018,07,13,01,37,16.30
2018,07,13,01,38,16.30
2018,07,13,01,39,16.30
2018,07,13,01,40,16.30
2018,07,13,01,41,16.30
2018,07,13,01,42,16.30
2018,07,13,01,43,16.20
2018,07,13,01,44,16.20
2018,07,13,01,45,16.20
2018,07,13,01,46,16.20
2018,07,13,01,47,16.20
2018,07,13,01,48,16.20
2018,07,13,01,49,16.20
2018,07,13,01,50,16.20
2018,07,13,01,51,16.20
2018,07,13,01,52,16.20
2018,07,13,01,53,16.20
2018,07,13,01,54,16.20
2018,07,13,01,55,16.20
2018,07,13,01,56,16.10
2018,07,13,01,57,16.10
2018,07,13,01,58,16.10
2018,07,13,01,59,16.10
2018,07,13,02,00,16.10
2018,07,13,02,01,16.10
2018,07,13,02,02,16.00
2018,07,13,02,03,16.00
2018,07,13,02,04,16.00
2018,07,13,02,05,16.00
2018,07,13,02,06,16.00
2018,07,13,02,07,16.00
2018,07,13,02,08,16.00
2018,07,13,02,09,16.00
2018,07,13,02,10,16.00
2018,07,13,02,11,16.00
2018,07,13,02,12,15.90
2018,07,13,02,13,15.90
2018,07,13,02,14,15.90
2018,07,13,02,15,15.90
2018,07,13,02,16,15.80
2018,07,13,02,17,15.80
2018,07,13,02,18,15.80
2018,07,13,02,19,15.70
2018,07,13,02,20,15.70
2018,07,13,02,21,15.70
2018,07,13,02,22,15.70
2018,07,13,02,23,15.70
2018,07,13,02,24,15.70
2018,07,13,02,25,15.70
2018,07,13,02,26,15.70
2018,07,13,02,27,15.70
2018,07,13,02,28,15.70
2018,07,13,02,29,15.60
2018,07,13,02,30,15.60
2018,07,13,02,31,15.60
2018,07,13,02,32,15.60
2018,07,13,02,33,15.60
2018,07,13,02,34,15.60
2018,07,13,02,35,15.60
2018,07,13,02,36,15.50
2018,07,13,02,37,15.50
2018,07,13,02,38,15.40
2018,07,13,02,39,15.40
2018,07,13,02,40,15.40
2018,07,13,02,41,15.40
2018,07,13,02,42,15.30
2018,07,13,02,43,15.30
2018,07,13,02,44,15.30
2018,07,13,02,45,15.30
2018,07,13,02,46,15.30
2018,07,13,02,47,15.30
2018,07,13,02,48,15.30
2018,07,13,02,49,15.30
2018,07,13,02,50,15.30
2018,07,13,02,51,15.30
2018,07,13,02,52,15.30
2018,07,13,02,53,15.30
2018,07,13,02,54,15.20
2018,07,13,02,55,15.20
2018,07,13,02,56,15.20
2018,07,13,02,57,15.20
2018,07,13,02,58,15.20
2018,07,13,02,59,15.10
2018,07,13,03,00,15.10
2018,07,13,03,01,15.10
2018,07,13,03,02,15.10
2018,07,13,03,03,15.00
2018,07,13,03,04,15.00
2018,07,13,03,05,15.00
2018,07,13,03,06,15.00
2018,07,13,03,07,15.00
2018,07,13,03,08,14.90
2018,07,13,03,09,14.90
2018,07,13,03,10,14.90
2018,07,13,03,11,14.80
2018,07,13,03,12,14.80
2018,07,13,03,13,14.80
2018,07,13,03,14,14.80
2018,07,13,03,15,14.70
2018,07,13,03,16,14.70
2018,07,13,03,17,14.70
2018,07,13,03,18,14.70
2018,07,13,03,19,14.70
2018,07,13,03,20,14.70
2018,07,13,03,21,14.70
2018,07,13,03,22,14.70
2018,07,13,03,23,14.70
2018,07,13,03,24,14.70
2018,07,13,03,25,14.70
2018,07,13,03,26,14.70
2018,07,13,03,27,14.70
2018,07,13,03,28,14.70
2018,07,13,03,29,14.70
2018,07,13,03,30,14.70
2018,07,13,03,31,14.60
2018,07,13,03,32,14.60
2018,07,13,03,33,14.60
2018,07,13,03,34,14.60
2018,07,13,03,35,14.60
2018,07,13,03,36,14.60
2018,07,13,03,37,14.50
2018,07,13,03,38,14.50
2018,07,13,03,39,14.50
2018,07,13,03,40,14.50
2018,07,13,03,41,14.40
2018,07,13,03,42,14.40
2018,07,13,03,43,14.40
2018,07,13,03,44,14.40
2018,07,13,03,45,14.40
2018,07,13,03,46,14.40
2018,07,13,03,47,14.40
2018,07,13,03,48,14.40
2018,07,13,03,49,14.30
2018,07,13,03,50,14.30
2018,07,13,03,51,14.30
2018,07,13,03,52,14.30
2018,07,13,03,53,14.30
2018,07,13,03,54,14.30
2018,07,13,03,55,14.30
2018,07,13,03,56,14.30
2018,07,13,03,57,14.30
2018,07,13,03,58,14.30
2018,07,13,03,59,14.30
2018,07,13,04,00,14.30
2018,07,13,04,01,14.30
2018,07,13,04,02,14.30
2018,07,13,04,03,14.30
2018,07,13,04,04,14.20
2018,07,13,04,05,14.20
2018,07,13,04,06,14.20
2018,07,13,04,07,14.20
2018,07,13,04,08,14.20
2018,07,13,04,09,14.20
2018,07,13,04,10,14.10
2018,07,13,04,11,14.10
2018,07,13,04,12,14.10
2018,07,13,04,13,14.10
2018,07,13,04,14,14.10
2018,07,13,04,15,14.10
2018,07,13,04,16,14.10
2018,07,13,04,17,14.10
2018,07,13,04,18,14.10
2018,07,13,04,19,14.10
2018,07,13,04,20,14.10
2018,07,13,04,21,14.10
2018,07,13,04,22,14.10
2018,07,13,04,23,14.10
2018,07,13,04,24,14.20
2018,07,13,04,25,14.20
2018,07,13,04,26,14.20
2018,07,13,04,27,14.10
2018,07,13,04,28,14.10
2018,07,13,04,29,14.10
2018,07,13,04,30,14.10
2018,07,13,04,31,14.10
2018,07,13,04,32,14.10
2018,07,13,04,33,14.10
2018,07,13,04,34,14.10
2018,07,13,04,35,14.00
2018,07,13,04,36,14.00
2018,07,13,04,37,14.00
2018,07,13,04,38,14.00
2018,07,13,04,39,13.90
2018,07,13,04,40,13.90
2018,07,13,04,41,13.90
2018,07,13,04,42,13.90
2018,07,13,04,43,13.80
2018,07,13,04,44,13.80
2018,07,13,04,45,13.80
2018,07,13,04,46,13.80
2018,07,13,04,47,13.80
2018,07,13,04,48,13.80
2018,07,13,04,49,13.80
2018,07,13,04,50,13.70
2018,07,13,04,51,13.70
2018,07,13,04,52,13.70
2018,07,13,04,53,13.70
2018,07,13,04,54,13.70
2018,07,13,04,55,13.70
2018,07,13,04,56,13.70
2018,07,13,04,57,13.60
2018,07,13,04,58,13.60
2018,07,13,04,59,13.60
2018,07,13,05,00,13.60
2018,07,13,05,01,13.60
2018,07,13,05,02,13.60
2018,07,13,05,03,13.50
2018,07,13,05,04,13.50
2018,07,13,05,05,13.50
2018,07,13,05,06,13.50
2018,07,13,05,07,13.50
2018,07,13,05,08,13.50
2018,07,13,05,09,13.50
2018,07,13,05,10,13.50
2018,07,13,05,11,13.50
2018,07,13,05,12,13.50
2018,07,13,05,13,13.50
2018,07,13,05,14,13.50
2018,07,13,05,15,13.50
2018,07,13,05,16,13.50
2018,07,13,05,17,13.50
2018,07,13,05,18,13.50
2018,07,13,05,19,13.50
2018,07,13,05,20,13.50
2018,07,13,05,21,13.50
2018,07,13,05,22,13.50
2018,07,13,05,23,13.50
2018,07,13,05,24,13.50
2018,07,13,05,25,13.50
2018,07,13,05,26,13.50
2018,07,13,05,27,13.50
2018,07,13,05,28,13.50
2018,07,13,05,29,13.50
2018,07,13,05,30,13.50
2018,07,13,05,31,13.50
2018,07,13,05,32,13.50
2018,07,13,05,33,13.50
2018,07,13,05,34,13.50
2018,07,13,05,35,13.50
2018,07,13,05,36,13.40
2018,07,13,05,37,13.40
2018,07,13,05,38,13.40
2018,07,13,05,39,13.40
2018,07,13,05,40,13.40
2018,07,13,05,41,13.40
2018,07,13,05,42,13.40
2018,07,13,05,43,13.40
2018,07,13,05,44,13.40
2018,07,13,05,45,13.40
2018,07,13,05,46,13.40
2018,07,13,05,47,13.40
2018,07,13,05,48,13.40
2018,07,13,05,49,13.40
2018,07,13,05,50,13.40
2018,07,13,05,51,13.40
2018,07,13,05,52,13.40
2018,07,13,05,53,13.40
2018,07,13,05,54,13.40
2018,07,13,05,55,13.40
2018,07,13,05,56,13.40
2018,07,13,05,57,13.40
2018,07,13,05,58,13.40
2018,07,13,05,59,13.40
2018,07,13,06,00,13.40
2018,07,13,06,01,13.40
2018,07,13,06,02,13.40
2018,07,13,06,03,13.40
2018,07,13,06,04,13.40
2018,07,13,06,05,13.40
2018,07,13,06,06,13.40
2018,07,13,06,07,13.40
2018,07,13,06,08,13.40
2018,07,13,06,09,13.50
2018,07,13,06,10,13.50
2018,07,13,06,11,13.50
2018,07,13,06,12,13.50
2018,07,13,06,13,13.60
2018,07,13,06,14,13.60
2018,07,13,06,15,13.60
2018,07,13,06,16,13.60
2018,07,13,06,17,13.70
2018,07,13,06,18,13.70
2018,07,13,06,19,13.70
2018,07,13,06,20,13.70
2018,07,13,06,21,13.70
2018,07,13,06,22,13.80
2018,07,13,06,23,13.80
2018,07,13,06,24,13.80
2018,07,13,06,25,13.80
2018,07,13,06,26,13.80
2018,07,13,06,27,13.80
2018,07,13,06,28,13.90
2018,07,13,06,29,13.90
2018,07,13,06,30,13.90
2018,07,13,06,31,13.90
2018,07,13,06,32,13.90
2018,07,13,06,33,13.90
2018,07,13,06,34,13.90
2018,07,13,06,35,13.90
2018,07,13,06,36,13.90
2018,07,13,06,37,13.90
2018,07,13,06,38,13.90
2018,07,13,06,39,14.00
2018,07,13,06,40,14.00
2018,07,13,06,41,14.00
2018,07,13,06,42,14.10
2018,07,13,06,43,14.10
2018,07,13,06,44,14.10
2018,07,13,06,45,14.10
2018,07,13,06,46,14.20
2018,07,13,06,47,14.20
2018,07,13,06,48,14.20
2018,07,13,06,49,14.20
2018,07,13,06,50,14.30
2018,07,13,06,51,14.30
2018,07,13,06,52,14.40
2018,07,13,06,53,14.40
2018,07,13,06,54,14.40
2018,07,13,06,55,14.50
2018,07,13,06,56,14.50
2018,07,13,06,57,14.60
2018,07,13,06,58,14.60
2018,07,13,06,59,14.60
2018,07,13,07,00,14.70
2018,07,13,07,01,14.70
2018,07,13,07,02,14.80
2018,07,13,07,03,14.80
2018,07,13,07,04,14.90
2018,07,13,07,05,14.90
2018,07,13,07,06,14.90
2018,07,13,07,07,15.00
2018,07,13,07,08,15.00
2018,07,13,07,09,15.10
2018,07,13,07,10,15.10
2018,07,13,07,11,15.20
2018,07,13,07,12,15.20
2018,07,13,07,13,15.20
2018,07,13,07,14,15.30
2018,07,13,07,15,15.30
2018,07,13,07,16,15.40
2018,07,13,07,17,15.40
2018,07,13,07,18,15.50
2018,07,13,07,19,15.50
2018,07,13,07,20,15.60
2018,07,13,07,21,15.60
2018,07,13,07,22,15.70
2018,07,13,07,23,15.70
2018,07,13,07,24,15.80
2018,07,13,07,25,15.80
2018,07,13,07,26,15.90
2018,07,13,07,27,15.90
2018,07,13,07,28,16.00
2018,07,13,07,29,16.00
2018,07,13,07,30,16.10
2018,07,13,07,31,16.20
2018,07,13,07,32,16.20
2018,07,13,07,33,16.30
2018,07,13,07,34,16.30
2018,07,13,07,35,16.40
2018,07,13,07,36,16.40
2018,07,13,07,37,16.50
2018,07,13,07,38,16.60
2018,07,13,07,39,16.60
2018,07,13,07,40,16.70
2018,07,13,07,41,16.70
2018,07,13,07,42,16.80
2018,07,13,07,43,16.80
2018,07,13,07,44,16.80
2018,07,13,07,45,16.90
2018,07,13,07,46,16.90
2018,07,13,07,47,17.00
2018,07,13,07,48,17.00
2018,07,13,07,49,17.10
2018,07,13,07,50,17.10
2018,07,13,07,51,17.20
2018,07,13,07,52,17.20
2018,07,13,07,53,17.30
2018,07,13,07,54,17.30
2018,07,13,07,55,17.40
2018,07,13,07,56,17.50
2018,07,13,07,57,17.60
2018,07,13,07,58,17.60
2018,07,13,07,59,17.70
2018,07,13,08,00,17.80
2018,07,13,08,01,17.80
2018,07,13,08,02,17.90
2018,07,13,08,03,18.00
2018,07,13,08,04,18.00
2018,07,13,08,05,18.10
2018,07,13,08,06,18.20
2018,07,13,08,07,18.20
2018,07,13,08,08,18.30
2018,07,13,08,09,18.30
2018,07,13,08,10,18.40
2018,07,13,08,11,18.40
2018,07,13,08,12,18.50
2018,07,13,08,13,18.60
2018,07,13,08,14,18.70
2018,07,13,08,15,18.70
2018,07,13,08,16,18.80
2018,07,13,08,17,18.90
2018,07,13,08,18,19.00
2018,07,13,08,19,19.10
2018,07,13,08,20,19.20
2018,07,13,08,21,19.30
2018,07,13,08,22,19.40
2018,07,13,08,23,19.50
2018,07,13,08,24,19.60
2018,07,13,08,25,19.80
2018,07,13,08,26,19.90
2018,07,13,08,27,20.00
2018,07,13,08,28,20.10
2018,07,13,08,29,20.20
2018,07,13,08,30,20.30
2018,07,13,08,31,20.40
2018,07,13,08,32,20.50
2018,07,13,08,33,20.50
2018,07,13,08,34,20.60
2018,07,13,08,35,20.70
2018,07,13,08,36,20.70
2018,07,13,08,37,20.80
2018,07,13,08,38,20.90
2018,07,13,08,39,21.00
2018,07,13,08,40,21.10
2018,07,13,08,41,21.10
2018,07,13,08,42,21.20
2018,07,13,08,43,21.30
2018,07,13,08,44,21.30
2018,07,13,08,45,21.30
2018,07,13,08,46,21.40
2018,07,13,08,47,21.40
2018,07,13,08,48,21.50
2018,07,13,08,49,21.50
2018,07,13,08,50,21.60
2018,07,13,08,51,21.60
2018,07,13,08,52,21.70
2018,07,13,08,53,21.70
2018,07,13,08,54,21.80
2018,07,13,08,55,21.80
2018,07,13,08,56,21.90
2018,07,13,08,57,21.90
2018,07,13,08,58,21.90
2018,07,13,08,59,22.00
2018,07,13,09,00,22.10
2018,07,13,09,01,22.10
2018,07,13,09,02,22.10
2018,07,13,09,03,22.10
2018,07,13,09,04,22.10
2018,07,13,09,05,22.20
2018,07,13,09,06,22.20
2018,07,13,09,07,22.20
2018,07,13,09,08,22.20
2018,07,13,09,09,22.30
2018,07,13,09,10,22.30
2018,07,13,09,11,22.30
2018,07,13,09,12,22.40
2018,07,13,09,13,22.40
2018,07,13,09,14,22.50
2018,07,13,09,15,22.50
2018,07,13,09,16,22.60
2018,07,13,09,17,22.60
2018,07,13,09,18,22.60
2018,07,13,09,19,22.60
2018,07,13,09,20,22.50
2018,07,13,09,21,22.50
2018,07,13,09,22,22.50
2018,07,13,09,23,22.40
2018,07,13,09,24,22.40
2018,07,13,09,25,22.40
2018,07,13,09,26,22.40
2018,07,13,09,27,22.40
2018,07,13,09,28,22.40
2018,07,13,09,29,22.40
2018,07,13,09,30,22.40
2018,07,13,09,31,22.50
2018,07,13,09,32,22.50
2018,07,13,09,33,22.50
2018,07,13,09,34,22.50
2018,07,13,09,35,22.40
2018,07,13,09,36,22.40
2018,07,13,09,37,22.30
2018,07,13,09,38,22.30
2018,07,13,09,39,22.30
2018,07,13,09,40,22.40
2018,07,13,09,41,22.40
2018,07,13,09,42,22.40
2018,07,13,09,43,22.40
2018,07,13,09,44,22.50
2018,07,13,09,45,22.50
2018,07,13,09,46,22.60
2018,07,13,09,47,22.60
2018,07,13,09,48,22.70
2018,07,13,09,49,22.80
2018,07,13,09,50,22.80
2018,07,13,09,51,22.80
2018,07,13,09,52,22.90
2018,07,13,09,53,22.90
2018,07,13,09,54,22.90
2018,07,13,09,55,22.90
2018,07,13,09,56,22.90
2018,07,13,09,57,22.90
2018,07,13,09,58,22.90
2018,07,13,09,59,22.90
2018,07,13,10,00,22.90
2018,07,13,10,01,22.90
2018,07,13,10,02,22.80
2018,07,13,10,03,22.80
2018,07,13,10,04,22.80
2018,07,13,10,05,22.80
2018,07,13,10,06,22.70
2018,07,13,10,07,22.70
2018,07,13,10,08,22.70
2018,07,13,10,09,22.70
2018,07,13,10,10,22.70
2018,07,13,10,11,22.70
2018,07,13,10,12,22.70
2018,07,13,10,13,22.70
2018,07,13,10,14,22.70
2018,07,13,10,15,22.70
2018,07,13,10,16,22.70
2018,07,13,10,17,22.70
2018,07,13,10,18,22.70
2018,07,13,10,19,22.70
2018,07,13,10,20,22.70
2018,07,13,10,21,22.80
2018,07,13,10,22,22.80
2018,07,13,10,23,22.80
2018,07,13,10,24,22.80
2018,07,13,10,25,22.80
2018,07,13,10,26,22.80
2018,07,13,10,27,22.80
2018,07,13,10,28,22.70
2018,07,13,10,29,22.70
2018,07,13,10,30,22.70
2018,07,13,10,31,22.70
2018,07,13,10,32,22.70
2018,07,13,10,33,22.70
2018,07,13,10,34,22.70
2018,07,13,10,35,22.70
2018,07,13,10,36,22.70
2018,07,13,10,37,22.80
2018,07,13,10,38,22.80
2018,07,13,10,39,22.80
2018,07,13,10,40,22.90
2018,07,13,10,41,22.90
2018,07,13,10,42,22.90
2018,07,13,10,43,22.90
2018,07,13,10,44,22.90
2018,07,13,10,45,23.00
2018,07,13,10,46,23.00
2018,07,13,10,47,23.10
2018,07,13,10,48,23.10
2018,07,13,10,49,23.20
2018,07,13,10,50,23.20
2018,07,13,10,51,23.20
2018,07,13,10,52,23.20
2018,07,13,10,53,23.30
2018,07,13,10,54,23.30
2018,07,13,10,55,23.30
2018,07,13,10,56,23.30
2018,07,13,10,57,23.30
2018,07,13,10,58,23.30
2018,07,13,10,59,23.20
2018,07,13,11,00,23.20
2018,07,13,11,01,23.30
2018,07,13,11,02,23.30
2018,07,13,11,03,23.30
2018,07,13,11,04,23.30
2018,07,13,11,05,23.30
2018,07,13,11,06,23.30
2018,07,13,11,07,23.30
2018,07,13,11,08,23.40
2018,07,13,11,09,23.40
2018,07,13,11,10,23.40
2018,07,13,11,11,23.40
2018,07,13,11,12,23.40
2018,07,13,11,13,23.40
2018,07,13,11,14,23.40
2018,07,13,11,15,23.40
2018,07,13,11,16,23.50
2018,07,13,11,17,23.50
2018,07,13,11,18,23.50
2018,07,13,11,19,23.60
2018,07,13,11,20,23.60
2018,07,13,11,21,23.60
2018,07,13,11,22,23.70
2018,07,13,11,23,23.70
2018,07,13,11,24,23.70
2018,07,13,11,25,23.70
2018,07,13,11,26,23.70
2018,07,13,11,27,23.70
2018,07,13,11,28,23.70
2018,07,13,11,29,23.70
2018,07,13,11,30,23.70
2018,07,13,11,31,23.70
2018,07,13,11,32,23.70
2018,07,13,11,33,23.70
2018,07,13,11,34,23.70
2018,07,13,11,35,23.70
2018,07,13,11,36,23.70
2018,07,13,11,37,23.80
2018,07,13,11,38,23.80
2018,07,13,11,39,23.90
2018,07,13,11,40,23.90
2018,07,13,11,41,23.90
2018,07,13,11,42,24.00
2018,07,13,11,43,24.00
2018,07,13,11,44,24.00
2018,07,13,11,45,24.10
2018,07,13,11,46,24.10
2018,07,13,11,47,24.10
2018,07,13,11,48,24.10
2018,07,13,11,49,24.20
2018,07,13,11,50,24.20
2018,07,13,11,51,24.30
2018,07,13,11,52,24.20
2018,07,13,11,53,24.20
2018,07,13,11,54,24.10
2018,07,13,11,55,24.10
2018,07,13,11,56,24.00
2018,07,13,11,57,24.00
2018,07,13,11,58,23.90
2018,07,13,11,59,23.90
2018,07,13,12,00,23.90
2018,07,13,12,01,24.00
2018,07,13,12,02,24.00
2018,07,13,12,03,24.10
2018,07,13,12,04,24.10
2018,07,13,12,05,24.20
2018,07,13,12,06,24.20
2018,07,13,12,07,24.20
2018,07,13,12,08,24.20
2018,07,13,12,09,24.20
2018,07,13,12,10,24.20
2018,07,13,12,11,24.20
2018,07,13,12,12,24.20
2018,07,13,12,13,24.20
2018,07,13,12,14,24.20
2018,07,13,12,15,24.20
2018,07,13,12,16,24.10
2018,07,13,12,17,24.10
2018,07,13,12,18,24.10
2018,07,13,12,19,24.00
2018,07,13,12,20,24.10
2018,07,13,12,21,24.10
2018,07,13,12,22,24.10
2018,07,13,12,23,24.10
2018,07,13,12,24,24.00
2018,07,13,12,25,24.00
2018,07,13,12,26,23.90
2018,07,13,12,27,23.90
2018,07,13,12,28,24.00
2018,07,13,12,29,24.00
2018,07,13,12,30,24.00
2018,07,13,12,31,23.90
2018,07,13,12,32,24.00
2018,07,13,12,33,24.00
2018,07,13,12,34,24.10
2018,07,13,12,35,24.10
2018,07,13,12,36,24.10
2018,07,13,12,37,24.20
2018,07,13,12,38,24.20
2018,07,13,12,39,24.20
2018,07,13,12,40,24.20
2018,07,13,12,41,24.20
2018,07,13,12,42,24.30
2018,07,13,12,43,24.30
2018,07,13,12,44,24.40
2018,07,13,12,45,24.40
2018,07,13,12,46,24.40
2018,07,13,12,47,24.40
2018,07,13,12,48,24.40
2018,07,13,12,49,24.40
2018,07,13,12,50,24.40
2018,07,13,12,51,24.40
2018,07,13,12,52,24.30
2018,07,13,12,53,24.30
2018,07,13,12,54,24.30
2018,07,13,12,55,24.30
2018,07,13,12,56,24.30
2018,07,13,12,57,24.40
2018,07,13,12,58,24.40
2018,07,13,12,59,24.50
2018,07,13,13,00,24.50
2018,07,13,13,01,24.60
2018,07,13,13,02,24.60
2018,07,13,13,03,24.60
2018,07,13,13,04,24.60
2018,07,13,13,05,24.60
2018,07,13,13,06,24.60
2018,07,13,13,07,24.60
2018,07,13,13,08,24.60
2018,07,13,13,09,24.60
2018,07,13,13,10,24.70
2018,07,13,13,11,24.70
2018,07,13,13,12,24.70
2018,07,13,13,13,24.70
2018,07,13,13,14,24.60
2018,07,13,13,15,24.60
2018,07,13,13,16,24.60
2018,07,13,13,17,24.60
2018,07,13,13,18,24.60
2018,07,13,13,19,24.60
2018,07,13,13,20,24.60
2018,07,13,13,21,24.70
2018,07,13,13,22,24.70
2018,07,13,13,23,24.70
2018,07,13,13,24,24.70
2018,07,13,13,25,24.70
2018,07,13,13,26,24.70
2018,07,13,13,27,24.80
2018,07,13,13,28,24.80
2018,07,13,13,29,24.80
2018,07,13,13,30,24.90
2018,07,13,13,31,24.90
2018,07,13,13,32,24.90
2018,07,13,13,33,24.90
2018,07,13,13,34,24.90
2018,07,13,13,35,24.90
2018,07,13,13,36,24.90
2018,07,13,13,37,24.90
2018,07,13,13,38,24.90
2018,07,13,13,39,24.90
2018,07,13,13,40,24.90
2018,07,13,13,41,24.90
2018,07,13,13,42,24.90
2018,07,13,13,43,24.90
2018,07,13,13,44,24.90
2018,07,13,13,45,24.90
2018,07,13,13,46,24.90
2018,07,13,13,47,25.00
2018,07,13,13,48,25.00
2018,07,13,13,49,24.90
2018,07,13,13,50,24.90
2018,07,13,13,51,25.00
2018,07,13,13,52,25.00
2018,07,13,13,53,25.00
2018,07,13,13,54,25.00
2018,07,13,13,55,25.10
2018,07,13,13,56,25.10
2018,07,13,13,57,25.10
2018,07,13,13,58,25.10
2018,07,13,13,59,25.10
2018,07,13,14,00,25.10
2018,07,13,14,01,25.00
2018,07,13,14,02,25.00
2018,07,13,14,03,25.00
2018,07,13,14,04,25.00
2018,07,13,14,05,25.00
2018,07,13,14,06,25.00
2018,07,13,14,07,25.00
2018,07,13,14,08,25.10
2018,07,13,14,09,25.00
2018,07,13,14,10,25.00
2018,07,13,14,11,25.00
2018,07,13,14,12,25.00
2018,07,13,14,13,25.10
2018,07,13,14,14,25.00
2018,07,13,14,15,25.00
2018,07,13,14,16,25.10
2018,07,13,14,17,25.10
2018,07,13,14,18,25.10
2018,07,13,14,19,25.10
2018,07,13,14,20,25.10
2018,07,13,14,21,25.10
2018,07,13,14,22,25.20
2018,07,13,14,23,25.20
2018,07,13,14,24,25.20
2018,07,13,14,25,25.20
2018,07,13,14,26,25.20
2018,07,13,14,27,25.10
2018,07,13,14,28,25.10
2018,07,13,14,29,25.10
2018,07,13,14,30,25.00
2018,07,13,14,31,25.00
2018,07,13,14,32,25.00
2018,07,13,14,33,25.00
2018,07,13,14,34,25.10
2018,07,13,14,35,25.00
2018,07,13,14,36,25.10
2018,07,13,14,37,25.00
2018,07,13,14,38,25.00
2018,07,13,14,39,25.10
2018,07,13,14,40,25.10
2018,07,13,14,41,25.10
2018,07,13,14,42,25.10
2018,07,13,14,43,25.10
2018,07,13,14,44,25.10
2018,07,13,14,45,25.10
2018,07,13,14,46,25.00
2018,07,13,14,47,24.90
2018,07,13,14,48,24.90
2018,07,13,14,49,24.80
2018,07,13,14,50,24.80
2018,07,13,14,51,24.80
2018,07,13,14,52,24.80
2018,07,13,14,53,24.80
2018,07,13,14,54,24.80
2018,07,13,14,55,24.70
2018,07,13,14,56,24.70
2018,07,13,14,57,24.60
2018,07,13,14,58,24.60
2018,07,13,14,59,24.60
2018,07,13,15,00,24.60
2018,07,13,15,01,24.60
2018,07,13,15,02,24.50
2018,07,13,15,03,24.50
2018,07,13,15,04,24.50
2018,07,13,15,05,24.50
2018,07,13,15,06,24.50
2018,07,13,15,07,24.50
2018,07,13,15,08,24.60
2018,07,13,15,09,24.60
2018,07,13,15,10,24.60
2018,07,13,15,11,24.60
2018,07,13,15,12,24.60
2018,07,13,15,13,24.60
2018,07,13,15,14,24.60
2018,07,13,15,15,24.70
2018,07,13,15,16,24.70
2018,07,13,15,17,24.70
2018,07,13,15,18,24.70
2018,07,13,15,19,24.60
2018,07,13,15,20,24.50
2018,07,13,15,21,24.40
2018,07,13,15,22,24.40
2018,07,13,15,23,24.40
2018,07,13,15,24,24.40
2018,07,13,15,25,24.40
2018,07,13,15,26,24.40
2018,07,13,15,27,24.30
2018,07,13,15,28,24.30
2018,07,13,15,29,24.40
2018,07,13,15,30,24.40
2018,07,13,15,31,24.40
2018,07,13,15,32,24.40
2018,07,13,15,33,24.40
2018,07,13,15,34,24.40
2018,07,13,15,35,24.40
2018,07,13,15,36,24.50
2018,07,13,15,37,24.50
2018,07,13,15,38,24.60
2018,07,13,15,39,24.60
2018,07,13,15,40,24.70
2018,07,13,15,41,24.70
2018,07,13,15,42,24.70
2018,07,13,15,43,24.70
2018,07,13,15,44,24.70
2018,07,13,15,45,24.60
2018,07,13,15,46,24.50
2018,07,13,15,47,24.50
2018,07,13,15,48,24.50
2018,07,13,15,49,24.50
2018,07,13,15,50,24.50
2018,07,13,15,51,24.50
2018,07,13,15,52,24.50
2018,07,13,15,53,24.50
2018,07,13,15,54,24.60
2018,07,13,15,55,24.60
2018,07,13,15,56,24.60
2018,07,13,15,57,24.70
2018,07,13,15,58,24.70
2018,07,13,15,59,24.70
2018,07,13,16,00,24.80
2018,07,13,16,01,24.80
2018,07,13,16,02,24.80
2018,07,13,16,03,24.80
2018,07,13,16,04,24.80
2018,07,13,16,05,24.80
2018,07,13,16,06,24.70
2018,07,13,16,07,24.70
2018,07,13,16,08,24.80
2018,07,13,16,09,24.80
2018,07,13,16,10,24.80
2018,07,13,16,11,24.80
2018,07,13,16,12,24.80
2018,07,13,16,13,24.80
2018,07,13,16,14,24.70
2018,07,13,16,15,24.70
2018,07,13,16,16,24.70
2018,07,13,16,17,24.70
2018,07,13,16,18,24.80
2018,07,13,16,19,24.80
2018,07,13,16,20,24.80
2018,07,13,16,21,24.80
2018,07,13,16,22,24.80
2018,07,13,16,23,24.70
2018,07,13,16,24,24.70
2018,07,13,16,25,24.70
2018,07,13,16,26,24.70
2018,07,13,16,27,24.70
2018,07,13,16,28,24.80
2018,07,13,16,29,24.80
2018,07,13,16,30,24.70
2018,07,13,16,31,24.70
2018,07,13,16,32,24.70
2018,07,13,16,33,24.70
2018,07,13,16,34,24.70
2018,07,13,16,35,24.70
2018,07,13,16,36,24.60
2018,07,13,16,37,24.60
2018,07,13,16,38,24.60
2018,07,13,16,39,24.60
2018,07,13,16,40,24.60
2018,07,13,16,41,24.60
2018,07,13,16,42,24.60
2018,07,13,16,43,24.60
2018,07,13,16,44,24.60
2018,07,13,16,45,24.60
2018,07,13,16,46,24.70
2018,07,13,16,47,24.70
2018,07,13,16,48,24.70
2018,07,13,16,49,24.80
2018,07,13,16,50,24.80
2018,07,13,16,51,24.80
2018,07,13,16,52,24.90
2018,07,13,16,53,24.90
2018,07,13,16,54,24.90
2018,07,13,16,55,24.80
2018,07,13,16,56,24.80
2018,07,13,16,57,24.80
2018,07,13,16,58,24.80
2018,07,13,16,59,24.70
2018,07,13,17,00,24.70
2018,07,13,17,01,24.60
2018,07,13,17,02,24.60
2018,07,13,17,03,24.60
2018,07,13,17,04,24.70
2018,07,13,17,05,24.70
2018,07,13,17,06,24.70
2018,07,13,17,07,24.70
2018,07,13,17,08,24.70
2018,07,13,17,09,24.60
2018,07,13,17,10,24.60
2018,07,13,17,11,24.70
2018,07,13,17,12,24.70
2018,07,13,17,13,24.70
2018,07,13,17,14,24.70
2018,07,13,17,15,24.80
2018,07,13,17,16,24.80
2018,07,13,17,17,24.80
2018,07,13,17,18,24.90
2018,07,13,17,19,24.90